Time,TemperatureF,DewpointF,PressureIn,WindDirection,WindDirectionDegrees,WindSpeedMPH,WindSpeedGustMPH,Humidity,HourlyPrecipIn,Conditions,Clouds,dailyrainin,SoftwareType,DateUTC
2013-01-19 00:12:00,33.6,30.0,30.51,WNW,302,0.0,1.0,86,0.00,,,0.00,weatherlink.com 1.10,2013-01-19 05:12:00,
2013-01-19 00:27:00,33.6,30.0,30.51,WNW,300,0.0,2.0,86,0.00,,,0.00,weatherlink.com 1.10,2013-01-19 05:27:00,
2013-01-19 00:42:00,33.7,30.0,30.51,WNW,285,0.0,1.0,85,0.00,,,0.00,weatherlink.com 1.10,2013-01-19 05:42:00,
2013-01-19 00:57:00,33.2,30.0,30.51,WNW,293,1.0,1.0,86,0.00,,,0.00,weatherlink.com 1.10,2013-01-19 05:57:00,
2013-01-19 01:12:00,32.9,30.0,30.52,WNW,300,0.0,2.0,87,0.00,,,0.00,weatherlink.com 1.10,2013-01-19 06:12:00,
2013-01-19 01:27:00,32.9,30.0,30.52,WNW,300,0.0,1.0,88,0.00,,,0.00,weatherlink.com 1.10,2013-01-19 06:27:00,
2013-01-19 01:42:00,32.7,30.0,30.52,WNW,300,1.0,1.0,89,0.00,,,0.00,weatherlink.com 1.10,2013-01-19 06:42:00,
2013-01-19 01:57:00,32.6,30.0,30.52,NW,311,2.0,2.0,89,0.00,,,0.00,weatherlink.com 1.10,2013-01-19 06:57:00,
2013-01-19 02:12:00,32.5,30.0,30.52,WNW,302,1.0,2.0,89,0.00,,,0.00,weatherlink.com 1.10,2013-01-19 07:12:00,
2013-01-19 02:27:00,32.1,30.0,30.52,WNW,301,0.0,2.0,90,0.00,,,0.00,weatherlink.com 1.10,2013-01-19 07:27:00,
2013-01-19 02:42:00,32.1,30.0,30.52,WNW,297,0.0,2.0,90,0.00,,,0.00,weatherlink.com 1.10,2013-01-19 07:42:00,
2013-01-19 02:57:00,32.5,30.0,30.51,NW,311,1.0,2.0,89,0.00,,,0.00,weatherlink.com 1.10,2013-01-19 07:57:00,
2013-01-19 03:12:00,33.2,30.0,30.50,WNW,303,0.0,3.0,89,0.00,,,0.00,weatherlink.com 1.10,2013-01-19 08:12:00,
2013-01-19 03:27:00,33.7,30.0,30.50,NW,323,0.0,3.0,87,0.00,,,0.00,weatherlink.com 1.10,2013-01-19 08:27:00,
2013-01-19 03:43:00,33.4,30.0,30.49,NNW,334,0.0,2.0,86,0.00,,,0.00,weatherlink.com 1.10,2013-01-19 08:43:00,
2013-01-19 03:57:00,32.9,30.0,30.49,NNW,337,0.0,1.0,87,0.00,,,0.00,weatherlink.com 1.10,2013-01-19 08:57:00,
2013-01-19 04:12:00,32.5,29.0,30.49,WNW,290,0.0,1.0,88,0.00,,,0.00,weatherlink.com 1.10,2013-01-19 09:12:00,
2013-01-19 04:27:00,32.1,29.0,30.49,WNW,290,0.0,1.0,89,0.00,,,0.00,weatherlink.com 1.10,2013-01-19 09:27:00,
2013-01-19 04:43:00,32.0,29.0,30.49,North,352,0.0,1.0,90,0.00,,,0.00,weatherlink.com 1.10,2013-01-19 09:43:00,
2013-01-19 04:58:00,31.8,29.0,30.48,North,11,0.0,0.0,90,0.00,,,0.00,weatherlink.com 1.10,2013-01-19 09:58:00,
2013-01-19 05:13:00,31.9,30.0,30.48,NW,323,0.0,1.0,91,0.00,,,0.00,weatherlink.com 1.10,2013-01-19 10:13:00,
2013-01-19 05:28:00,32.1,30.0,30.48,NNW,332,0.0,1.0,91,0.00,,,0.00,weatherlink.com 1.10,2013-01-19 10:28:00,
2013-01-19 05:43:00,32.4,30.0,30.49,NW,309,0.0,1.0,91,0.00,,,0.00,weatherlink.com 1.10,2013-01-19 10:43:00,
2013-01-19 05:58:00,32.2,30.0,30.49,WNW,287,0.0,1.0,92,0.00,,,0.00,weatherlink.com 1.10,2013-01-19 10:58:00,
2013-01-19 06:13:00,32.3,30.0,30.49,WNW,293,0.0,2.0,92,0.00,,,0.00,weatherlink.com 1.10,2013-01-19 11:13:00,
2013-01-19 07:58:00,35.5,33.0,30.49,North,1,0.0,1.0,90,0.00,,,0.00,weatherlink.com 1.10,2013-01-19 12:58:00,
2013-01-19 08:13:00,37.4,34.0,30.50,North,5,1.0,2.0,88,0.00,,,0.00,weatherlink.com 1.10,2013-01-19 13:13:00,
2013-01-19 08:28:00,38.5,34.0,30.50,WNW,295,0.0,3.0,85,0.00,,,0.00,weatherlink.com 1.10,2013-01-19 13:28:00,
2013-01-19 09:13:00,43.6,36.0,30.50,NNW,338,1.0,2.0,75,0.00,,,0.00,weatherlink.com 1.10,2013-01-19 14:13:00,
2013-01-19 09:28:00,44.7,35.0,30.50,NW,317,0.0,3.0,70,0.00,,,0.00,weatherlink.com 1.10,2013-01-19 14:28:00,
2013-01-19 09:43:00,46.7,35.0,30.51,West,281,0.0,2.0,65,0.00,,,0.00,weatherlink.com 1.10,2013-01-19 14:43:00,
2013-01-19 09:58:00,46.6,34.0,30.51,ENE,76,5.0,5.0,61,0.00,,,0.00,weatherlink.com 1.10,2013-01-19 14:58:00,
2013-01-19 10:13:00,48.4,36.0,30.50,WNW,301,1.0,3.0,63,0.00,,,0.00,weatherlink.com 1.10,2013-01-19 15:13:00,
2013-01-19 10:28:00,47.9,34.0,30.50,SE,135,2.0,4.0,60,0.00,,,0.00,weatherlink.com 1.10,2013-01-19 15:28:00,
2013-01-19 10:43:00,47.1,35.0,30.49,SE,124,3.0,3.0,63,0.00,,,0.00,weatherlink.com 1.10,2013-01-19 15:43:00,
2013-01-19 10:58:00,47.1,36.0,30.48,ESE,112,3.0,3.0,65,0.00,,,0.00,weatherlink.com 1.10,2013-01-19 15:58:00,
2013-01-19 11:13:00,47.2,37.0,30.46,ESE,115,4.0,4.0,68,0.00,,,0.00,weatherlink.com 1.10,2013-01-19 16:13:00,
2013-01-19 11:28:00,48.1,38.0,30.46,South,179,3.0,3.0,68,0.00,,,0.00,weatherlink.com 1.10,2013-01-19 16:28:00,
2013-01-19 11:43:00,48.6,38.0,30.45,SW,214,6.0,8.0,68,0.00,,,0.00,weatherlink.com 1.10,2013-01-19 16:43:00,
2013-01-19 11:59:00,47.9,40.0,30.43,SSW,204,5.0,7.0,73,0.00,,,0.00,weatherlink.com 1.10,2013-01-19 16:59:00,
2013-01-19 12:14:00,48.4,41.0,30.42,SSW,208,4.0,7.0,76,0.00,,,0.00,weatherlink.com 1.10,2013-01-19 17:14:00,
2013-01-19 12:29:00,49.1,42.0,30.40,SSW,197,3.0,4.0,77,0.00,,,0.00,weatherlink.com 1.10,2013-01-19 17:29:00,
2013-01-19 12:59:00,50.8,43.0,30.38,SSE,150,4.0,4.0,74,0.00,,,0.00,weatherlink.com 1.10,2013-01-19 17:59:00,
2013-01-19 13:14:00,50.7,42.0,30.38,SSW,208,3.0,5.0,73,0.00,,,0.00,weatherlink.com 1.10,2013-01-19 18:14:00,
2013-01-19 13:44:00,51.4,43.0,30.36,SSW,200,3.0,3.0,72,0.00,,,0.00,weatherlink.com 1.10,2013-01-19 18:44:00,
2013-01-19 14:14:00,51.7,43.0,30.34,South,188,2.0,4.0,72,0.00,,,0.00,weatherlink.com 1.10,2013-01-19 19:14:00,
2013-01-19 14:44:00,52.8,44.0,30.32,SE,139,1.0,2.0,73,0.00,,,0.00,weatherlink.com 1.10,2013-01-19 19:44:00,
2013-01-19 15:14:00,52.6,46.0,30.31,East,91,3.0,3.0,77,0.00,,,0.00,weatherlink.com 1.10,2013-01-19 20:14:00,
2013-01-19 15:44:00,52.6,46.0,30.30,ENE,76,2.0,3.0,79,0.00,,,0.00,weatherlink.com 1.10,2013-01-19 20:44:00,
2013-01-19 15:59:00,53.1,47.0,30.30,East,91,2.0,3.0,79,0.00,,,0.00,weatherlink.com 1.10,2013-01-19 20:59:00,
2013-01-19 16:14:00,53.5,47.0,30.29,East,97,1.0,2.0,78,0.00,,,0.00,weatherlink.com 1.10,2013-01-19 21:14:00,
2013-01-19 16:29:00,54.0,47.0,30.29,East,84,1.0,1.0,76,0.00,,,0.00,weatherlink.com 1.10,2013-01-19 21:29:00,
2013-01-19 16:44:00,54.2,45.0,30.28,ESE,121,0.0,0.0,72,0.00,,,0.00,weatherlink.com 1.10,2013-01-19 21:44:00,
2013-01-19 17:15:00,53.5,47.0,30.28,East,96,0.0,0.0,79,0.00,,,0.00,weatherlink.com 1.10,2013-01-19 22:15:00,
2013-01-19 17:30:00,53.2,49.0,30.28,ESE,107,0.0,0.0,84,0.00,,,0.00,weatherlink.com 1.10,2013-01-19 22:30:00,
2013-01-19 17:44:00,53.7,49.0,30.28,SSW,211,1.0,2.0,85,0.00,,,0.00,weatherlink.com 1.10,2013-01-19 22:44:00,
2013-01-19 18:00:00,53.5,50.0,30.27,SSW,198,1.0,2.0,87,0.00,,,0.00,weatherlink.com 1.10,2013-01-19 23:00:00,
2013-01-19 18:14:00,53.0,49.0,30.27,SE,146,4.0,4.0,86,0.00,,,0.00,weatherlink.com 1.10,2013-01-19 23:14:00,
2013-01-19 18:30:00,52.5,49.0,30.28,SSE,158,3.0,6.0,86,0.00,,,0.00,weatherlink.com 1.10,2013-01-19 23:30:00,
2013-01-19 18:45:00,52.2,49.0,30.28,SSW,201,3.0,3.0,88,0.00,,,0.00,weatherlink.com 1.10,2013-01-19 23:45:00,
2013-01-19 19:15:00,51.3,48.0,30.28,SSW,203,2.0,5.0,88,0.00,,,0.00,weatherlink.com 1.10,2013-01-20 00:15:00,
2013-01-19 19:45:00,50.8,48.0,30.28,SSW,208,3.0,3.0,89,0.00,,,0.00,weatherlink.com 1.10,2013-01-20 00:45:00,
2013-01-19 20:00:00,50.6,48.0,30.27,SSW,201,1.0,3.0,90,0.00,,,0.00,weatherlink.com 1.10,2013-01-20 01:00:00,
2013-01-19 20:15:00,50.4,48.0,30.27,SW,214,1.0,2.0,91,0.00,,,0.00,weatherlink.com 1.10,2013-01-20 01:15:00,
2013-01-19 20:30:00,50.3,48.0,30.27,SSW,208,2.0,2.0,91,0.00,,,0.00,weatherlink.com 1.10,2013-01-20 01:30:00,
2013-01-19 20:45:00,50.1,48.0,30.27,SSW,205,2.0,3.0,92,0.00,,,0.00,weatherlink.com 1.10,2013-01-20 01:45:00,
2013-01-19 21:15:00,49.5,47.0,30.26,SSW,207,1.0,2.0,92,0.00,,,0.00,weatherlink.com 1.10,2013-01-20 02:15:00,
2013-01-19 21:30:00,48.6,46.0,30.26,SSW,205,0.0,0.0,91,0.00,,,0.00,weatherlink.com 1.10,2013-01-20 02:30:00,
2013-01-19 21:45:00,47.8,46.0,30.25,SSW,207,0.0,0.0,93,0.00,,,0.00,weatherlink.com 1.10,2013-01-20 02:45:00,
2013-01-19 22:00:00,47.9,46.0,30.25,SSW,207,0.0,0.0,94,0.00,,,0.00,weatherlink.com 1.10,2013-01-20 03:00:00,
2013-01-19 22:15:00,47.8,46.0,30.25,SSW,207,0.0,0.0,94,0.00,,,0.00,weatherlink.com 1.10,2013-01-20 03:15:00,
2013-01-19 22:45:00,47.6,46.0,30.23,SSW,207,0.0,0.0,94,0.00,,,0.00,weatherlink.com 1.10,2013-01-20 03:45:00,
2013-01-19 23:00:00,48.4,47.0,30.22,South,170,1.0,2.0,96,0.00,,,0.00,weatherlink.com 1.10,2013-01-20 04:00:00,
2013-01-19 23:15:00,48.0,47.0,30.21,South,170,0.0,0.0,95,0.00,,,0.00,weatherlink.com 1.10,2013-01-20 04:15:00,
2013-01-19 23:30:00,48.1,47.0,30.20,South,171,0.0,0.0,95,0.00,,,0.00,weatherlink.com 1.10,2013-01-20 04:30:00,
2013-01-19 23:46:00,47.2,46.0,30.20,SW,222,1.0,1.0,95,0.00,,,0.00,weatherlink.com 1.10,2013-01-20 04:46:00,